Regional Weather Roundup
Issued by NWS Charleston, WV

Home | Current Version | Previous Version | Graphics & Text | Print | Product List | Glossary On
Versions: 1 2 3 4 5 6 7 8 9 10 11 12 13 14 15 16 17 18 19 20 21 22 23 24 25 26 27
000
ASUS41 KRLX 181510
RWRRLX
West Virginia Regional Weather Roundup
National Weather Service Charleston WV
1000 AM EST THU JAN 18 2018

Note: "fair" indicates few or no clouds below 12,000 feet with no
significant weather and/or obstructions to visibility.

WVZ003-181600-
Northern Panhandle of West Virginia

CITY           SKY/WX    TMP DP  RH WIND       PRES   REMARKS
WHEELING         N/A     12   5  73 SW16G28   30.24R WCI  -5
$$

WVZ009-181600-
Northwest West Virginia

CITY           SKY/WX    TMP DP  RH WIND       PRES   REMARKS
PARKERSBURG      N/A     13   6  74 S14G22    30.39S WCI  -2
$$

WVZ006-181600-
Western West Virginia

CITY           SKY/WX    TMP DP  RH WIND       PRES   REMARKS
HUNTINGTON       N/A     13   7  77 S10       30.44R WCI   0
$$

WVZ015-181600-
West Central West Virginia

CITY           SKY/WX    TMP DP  RH WIND       PRES   REMARKS
CHARLESTON       N/A     17   8  67 SW14      30.43R WCI   3
$$

WVZ022-031-181600-
North Central West Virginia

CITY           SKY/WX    TMP DP  RH WIND       PRES   REMARKS
CLARKSBURG       N/A     16   7  67 SW15      30.34R WCI   1
MORGANTOWN       N/A     16   7  67 S13G23    30.30S WCI   2
$$

WVZ025-035-042-045-181600-
Southern West Virginia

CITY           SKY/WX    TMP DP  RH WIND       PRES   REMARKS
BECKLEY          N/A     10   4  76 W9        30.31R WCI  -3
LOGAN            N/A     14   9  79 VRB5      30.40S WCI   6
BLUEFIELD        N/A      8   3  80 W15       30.30R WCI  -9
LEWISBURG        N/A     15   6  68 SW8       30.30R WCI   3
$$

WVZ047-181600-
Northern Mountains of West Virginia

CITY           SKY/WX    TMP DP  RH WIND       PRES   REMARKS
ELKINS           N/A     14   4  64 S9        30.31R WCI   2
$$

WVZ052-181600-
Eastern Panhandle of West Virginia

CITY           SKY/WX    TMP DP  RH WIND       PRES   REMARKS
MARTINSBURG      N/A     27   5  39 S5        30.17S
PETERSBURG       N/A     28   6  39 W13G36    30.21F
$$




USA.gov is the U.S. government's official web portal to all federal, state and local government web resources and services.